Regional Weather Roundup
Issued by NWS

Home | Current Version | Previous Version | Text Only | Print | Product List | Glossary On
Versions: 1 2 3 4 5 6 7 8 9 10 11 12 13 14 15 16 17 18 19 20 21 22 23 24 25 26 27 28 29 30 31 32 33 34 35 36 37 38 39 40 41 42 43 44 45 46 47 48 49 50
381
ASUS43 KLSX 231257
RWRMO

WEATHER SUMMARY FOR MISSOURI
NATIONAL WEATHER SERVICE SPRINGFIELD MO
800 AM CDT SUN APR 23 2017

NOTE: "FAIR" INDICATES FEW OR NO CLOUDS BELOW 12,000 FEET WITH NO
       SIGNIFICANT WEATHER AND/OR OBSTRUCTIONS TO VISIBILITY.
       CURRENT SKY AND/OR WEATHER CONDITIONS ARE NOT AVAILABLE FOR
       CHILLICOTHE AND FARMINGTON.

MOZ001>031-035>038-043-044-053-054-231400-
...NORTHERN AND WESTERN MISSOURI...

CITY           SKY/WX    TMP DP  RH WIND       PRES   REMARKS
KANSAS CTY INT MOSUNNY   47  36  65 N3        30.19R
LEE`S SUMMIT   SUNNY     47  37  68 N5        30.18R
ST JOSEPH      SUNNY     39  38  96 CALM      30.20R
CHILLICOTHE      N/A     45  35  68 CALM      30.20R

$$
MOZ066>068-077>081-088>096-101>105-231400-
...SOUTHWEST MISSOURI...

CITY           SKY/WX    TMP DP  RH WIND       PRES   REMARKS
SPRINGFIELD    SUNNY     45  38  76 N9        30.12R
JOPLIN         SUNNY     46  40  79 NE6       30.16R
BRANSON        SUNNY     45  39  81 CALM      30.12R

$$
MOZ032>034-039>042-045>050-055>058-069>072-231400-
...CENTRAL MISSOURI...

CITY           SKY/WX    TMP DP  RH WIND       PRES   REMARKS
COLUMBIA       NOT AVBL
JEFFERSON CITY SUNNY     47  36  65 NW6       30.15R
ROLLA          SUNNY     47  35  63 N8        30.11R

$$
MOZ051-052-059>065-231400-
...EAST CENTRAL MISSOURI...

CITY           SKY/WX    TMP DP  RH WIND       PRES   REMARKS
ST LOUIS INTL  MOSUNNY   50  32  50 NE7       30.12R

$$
MOZ072>076-082>087-097>100-106>115-231400-
...SOUTH CENTRAL AND SOUTHEAST MISSOURI...

CITY           SKY/WX    TMP DP  RH WIND       PRES   REMARKS
CAPE GIRARDEAU CLOUDY    48  38  68 N13       30.01R
POPLAR BLUFF   PTSUNNY   50  39  66 N15       30.00F
WEST PLAINS    SUNNY     48  36  63 N10       30.07S

$$



USA.gov is the U.S. government's official web portal to all federal, state and local government web resources and services.